Time,TemperatureF,DewpointF,PressureIn,WindDirection,WindDirectionDegrees,WindSpeedMPH,WindSpeedGustMPH,Humidity,HourlyPrecipIn,Conditions,Clouds,dailyrainin,SolarRadiationWatts/m^2,SoftwareType,DateUTC
2013-03-30 00:03:00,53.0,18.0,-100.00,ENE,69,2.0,8.0,25,0.00,,,0.00,55.000000,,2013-03-30 00:03:00,
2013-03-30 00:33:00,49.0,20.0,-100.00,NW,322,1.0,5.0,31,0.00,,,0.00,9.000000,,2013-03-30 00:33:00,
2013-03-30 00:43:00,49.0,20.0,-100.00,NW,322,1.0,5.0,31,0.00,,,0.00,9.000000,,2013-03-30 00:43:00,
2013-03-30 00:53:00,49.0,20.0,-100.00,NW,322,1.0,5.0,31,0.00,,,0.00,9.000000,,2013-03-30 00:53:00,
2013-03-30 01:03:00,49.0,20.0,-100.00,NW,322,1.0,5.0,31,0.00,,,0.00,9.000000,,2013-03-30 01:03:00,
2013-03-30 01:33:00,46.0,22.0,-100.00,North,351,1.0,5.0,39,0.00,,,0.00,0.000000,,2013-03-30 01:33:00,
2013-03-30 01:43:00,46.0,22.0,-100.00,North,351,1.0,5.0,39,0.00,,,0.00,0.000000,,2013-03-30 01:43:00,
2013-03-30 01:53:00,46.0,22.0,-100.00,North,351,1.0,5.0,39,0.00,,,0.00,0.000000,,2013-03-30 01:53:00,
2013-03-30 02:03:00,46.0,22.0,-100.00,North,351,1.0,5.0,39,0.00,,,0.00,0.000000,,2013-03-30 02:03:00,
2013-03-30 02:33:00,40.0,22.0,-100.00,WNW,302,0.0,2.0,49,0.00,,,0.00,0.000000,,2013-03-30 02:33:00,
2013-03-30 02:43:00,40.0,22.0,-100.00,WNW,302,0.0,2.0,49,0.00,,,0.00,0.000000,,2013-03-30 02:43:00,
2013-03-30 02:53:00,40.0,22.0,-100.00,WNW,302,0.0,2.0,49,0.00,,,0.00,0.000000,,2013-03-30 02:53:00,
2013-03-30 03:03:00,40.0,22.0,-100.00,WNW,302,0.0,2.0,49,0.00,,,0.00,0.000000,,2013-03-30 03:03:00,
2013-03-30 03:33:00,36.0,22.0,-100.00,WNW,288,1.0,2.0,57,0.00,,,0.00,0.000000,,2013-03-30 03:33:00,
2013-03-30 03:43:00,36.0,22.0,-100.00,WNW,288,1.0,2.0,57,0.00,,,0.00,0.000000,,2013-03-30 03:43:00,
2013-03-30 03:53:00,36.0,22.0,-100.00,WNW,288,1.0,2.0,57,0.00,,,0.00,0.000000,,2013-03-30 03:53:00,
2013-03-30 04:02:00,36.0,22.0,-100.00,WNW,288,1.0,2.0,57,0.00,,,0.00,0.000000,,2013-03-30 04:02:00,
2013-03-30 04:33:00,33.0,25.0,-100.00,West,272,0.0,2.0,72,0.00,,,0.00,0.000000,,2013-03-30 04:33:00,
2013-03-30 04:43:00,33.0,25.0,-100.00,West,272,0.0,2.0,72,0.00,,,0.00,0.000000,,2013-03-30 04:43:00,
2013-03-30 04:53:00,33.0,25.0,-100.00,West,272,0.0,2.0,72,0.00,,,0.00,0.000000,,2013-03-30 04:53:00,
2013-03-30 05:02:00,33.0,25.0,-100.00,West,272,0.0,2.0,72,0.00,,,0.00,0.000000,,2013-03-30 05:02:00,
2013-03-30 05:32:00,33.0,25.0,-100.00,North,8,1.0,2.0,72,0.00,,,0.00,0.000000,,2013-03-30 05:32:00,
2013-03-30 05:42:00,33.0,25.0,-100.00,North,8,1.0,2.0,72,0.00,,,0.00,0.000000,,2013-03-30 05:42:00,
2013-03-30 05:52:00,33.0,25.0,-100.00,North,8,1.0,2.0,72,0.00,,,0.00,0.000000,,2013-03-30 05:52:00,
2013-03-30 06:02:00,33.0,25.0,-100.00,North,8,1.0,2.0,72,0.00,,,0.00,0.000000,,2013-03-30 06:02:00,
2013-03-30 06:32:00,31.0,25.0,-100.00,WNW,291,1.0,3.0,77,0.00,,,0.00,0.000000,,2013-03-30 06:32:00,
2013-03-30 06:42:00,31.0,25.0,-100.00,WNW,291,1.0,3.0,77,0.00,,,0.00,0.000000,,2013-03-30 06:42:00,
2013-03-30 06:52:00,31.0,25.0,-100.00,WNW,291,1.0,3.0,77,0.00,,,0.00,0.000000,,2013-03-30 06:52:00,
2013-03-30 07:02:00,31.0,25.0,-100.00,WNW,291,1.0,3.0,77,0.00,,,0.00,0.000000,,2013-03-30 07:02:00,
2013-03-30 08:32:00,30.0,23.0,-100.00,West,265,0.0,3.0,76,-99.99,,,0.00,0.000000,,2013-03-30 08:32:00,
2013-03-30 08:42:00,30.0,23.0,-100.00,West,265,0.0,3.0,76,-99.99,,,0.00,0.000000,,2013-03-30 08:42:00,
2013-03-30 08:53:00,30.0,23.0,-100.00,West,265,0.0,3.0,76,-99.99,,,0.00,0.000000,,2013-03-30 08:53:00,
2013-03-30 09:03:00,30.0,23.0,-100.00,West,265,0.0,3.0,76,-99.99,,,0.00,0.000000,,2013-03-30 09:03:00,
2013-03-30 10:33:00,26.0,22.0,-100.00,WNW,299,0.0,1.0,85,-99.99,,,0.00,0.000000,,2013-03-30 10:33:00,
2013-03-30 10:42:00,26.0,22.0,-100.00,WNW,299,0.0,1.0,85,-99.99,,,0.00,0.000000,,2013-03-30 10:42:00,
2013-03-30 10:53:00,26.0,22.0,-100.00,WNW,299,0.0,1.0,85,-99.99,,,0.00,0.000000,,2013-03-30 10:53:00,
2013-03-30 11:04:00,26.0,22.0,-100.00,WNW,299,0.0,1.0,85,-99.99,,,0.00,0.000000,,2013-03-30 11:04:00,
2013-03-30 11:33:00,26.0,22.0,-100.00,NW,305,1.0,2.0,85,0.00,,,0.00,0.000000,,2013-03-30 11:33:00,
2013-03-30 11:43:00,26.0,22.0,-100.00,NW,305,1.0,2.0,85,0.00,,,0.00,0.000000,,2013-03-30 11:43:00,
2013-03-30 11:53:00,26.0,22.0,-100.00,NW,305,1.0,2.0,85,0.00,,,0.00,0.000000,,2013-03-30 11:53:00,
2013-03-30 12:02:00,26.0,22.0,-100.00,NW,305,1.0,2.0,85,0.00,,,0.00,0.000000,,2013-03-30 12:02:00,
2013-03-30 12:33:00,31.0,25.0,-100.00,SE,136,1.0,1.0,78,0.00,,,0.00,58.000000,,2013-03-30 12:33:00,
2013-03-30 12:43:00,31.0,25.0,-100.00,SE,136,1.0,1.0,78,0.00,,,0.00,58.000000,,2013-03-30 12:43:00,
2013-03-30 12:53:00,31.0,25.0,-100.00,SE,136,1.0,1.0,78,0.00,,,0.00,58.000000,,2013-03-30 12:53:00,
2013-03-30 13:02:00,31.0,25.0,-100.00,SE,136,1.0,1.0,78,0.00,,,0.00,58.000000,,2013-03-30 13:02:00,
2013-03-30 13:32:00,37.0,26.0,-100.00,SSE,158,2.0,4.0,63,0.00,,,0.00,242.000000,,2013-03-30 13:32:00,
2013-03-30 13:43:00,37.0,26.0,-100.00,SSE,158,2.0,4.0,63,0.00,,,0.00,242.000000,,2013-03-30 13:43:00,
2013-03-30 13:53:00,37.0,26.0,-100.00,SSE,158,2.0,4.0,63,0.00,,,0.00,242.000000,,2013-03-30 13:53:00,
2013-03-30 14:03:00,37.0,26.0,-100.00,SSE,158,2.0,4.0,63,0.00,,,0.00,242.000000,,2013-03-30 14:03:00,
2013-03-30 14:33:00,47.0,27.0,-100.00,SW,219,3.0,5.0,45,0.00,,,0.00,461.000000,,2013-03-30 14:33:00,
2013-03-30 14:43:00,47.0,27.0,-100.00,SW,219,3.0,5.0,45,0.00,,,0.00,461.000000,,2013-03-30 14:43:00,
2013-03-30 14:53:00,47.0,27.0,-100.00,SW,219,3.0,5.0,45,0.00,,,0.00,461.000000,,2013-03-30 14:53:00,
2013-03-30 15:03:00,47.0,27.0,-100.00,SW,219,3.0,5.0,45,0.00,,,0.00,461.000000,,2013-03-30 15:03:00,
2013-03-30 15:34:00,55.0,25.0,-100.00,SW,214,3.0,6.0,31,0.00,,,0.00,655.000000,,2013-03-30 15:34:00,
2013-03-30 15:43:00,55.0,25.0,-100.00,SW,214,3.0,6.0,31,0.00,,,0.00,655.000000,,2013-03-30 15:43:00,
2013-03-30 15:53:00,55.0,25.0,-100.00,SW,214,3.0,6.0,31,0.00,,,0.00,655.000000,,2013-03-30 15:53:00,
2013-03-30 16:03:00,55.0,25.0,-100.00,SW,214,3.0,6.0,31,0.00,,,0.00,655.000000,,2013-03-30 16:03:00,
2013-03-30 16:33:00,59.0,22.0,-100.00,SW,232,4.0,9.0,24,0.00,,,0.00,732.000000,,2013-03-30 16:33:00,
2013-03-30 16:43:00,59.0,22.0,-100.00,SW,232,4.0,9.0,24,0.00,,,0.00,732.000000,,2013-03-30 16:43:00,
2013-03-30 16:53:00,59.0,22.0,-100.00,SW,232,4.0,9.0,24,0.00,,,0.00,732.000000,,2013-03-30 16:53:00,
2013-03-30 17:02:00,59.0,22.0,-100.00,SW,232,4.0,9.0,24,0.00,,,0.00,732.000000,,2013-03-30 17:02:00,
2013-03-30 17:33:00,61.0,22.0,-100.00,SW,234,4.0,10.0,22,0.00,,,0.00,154.000000,,2013-03-30 17:33:00,
2013-03-30 17:43:00,61.0,22.0,-100.00,SW,234,4.0,10.0,22,0.00,,,0.00,154.000000,,2013-03-30 17:43:00,
2013-03-30 17:53:00,61.0,22.0,-100.00,SW,234,4.0,10.0,22,0.00,,,0.00,154.000000,,2013-03-30 17:53:00,
2013-03-30 18:03:00,61.0,22.0,-100.00,SW,234,4.0,10.0,22,0.00,,,0.00,154.000000,,2013-03-30 18:03:00,
2013-03-30 18:33:00,63.0,21.0,-100.00,SW,223,3.0,9.0,20,0.00,,,0.00,847.000000,,2013-03-30 18:33:00,
2013-03-30 18:43:00,63.0,21.0,-100.00,SW,223,3.0,9.0,20,0.00,,,0.00,847.000000,,2013-03-30 18:43:00,
2013-03-30 18:53:00,63.0,21.0,-100.00,SW,223,3.0,9.0,20,0.00,,,0.00,847.000000,,2013-03-30 18:53:00,
2013-03-30 19:03:00,63.0,21.0,-100.00,SW,223,3.0,9.0,20,0.00,,,0.00,847.000000,,2013-03-30 19:03:00,
2013-03-30 20:33:00,64.0,21.0,-100.00,North,357,4.0,9.0,19,-99.99,,,0.00,781.000000,,2013-03-30 20:33:00,
2013-03-30 20:43:00,64.0,21.0,-100.00,North,357,4.0,9.0,19,-99.99,,,0.00,781.000000,,2013-03-30 20:43:00,
2013-03-30 20:53:00,64.0,21.0,-100.00,North,357,4.0,9.0,19,-99.99,,,0.00,781.000000,,2013-03-30 20:53:00,
2013-03-30 21:03:00,64.0,21.0,-100.00,North,357,4.0,9.0,19,-99.99,,,0.00,781.000000,,2013-03-30 21:03:00,
2013-03-30 21:34:00,63.0,20.0,-100.00,SSW,203,4.0,9.0,19,0.00,,,0.00,515.000000,,2013-03-30 21:34:00,
2013-03-30 21:43:00,63.0,20.0,-100.00,SSW,203,4.0,9.0,19,0.00,,,0.00,515.000000,,2013-03-30 21:43:00,
2013-03-30 21:53:00,63.0,20.0,-100.00,SSW,203,4.0,9.0,19,0.00,,,0.00,515.000000,,2013-03-30 21:53:00,
2013-03-30 22:03:00,63.0,20.0,-100.00,SSW,203,4.0,9.0,19,0.00,,,0.00,515.000000,,2013-03-30 22:03:00,
2013-03-30 22:33:00,61.0,20.0,-100.00,WSW,244,3.0,8.0,20,0.00,,,0.00,254.000000,,2013-03-30 22:33:00,
2013-03-30 22:44:00,61.0,20.0,-100.00,WSW,244,3.0,8.0,20,0.00,,,0.00,254.000000,,2013-03-30 22:44:00,
2013-03-30 22:54:00,61.0,20.0,-100.00,WSW,244,3.0,8.0,20,0.00,,,0.00,254.000000,,2013-03-30 22:54:00,
2013-03-30 23:03:00,61.0,20.0,-100.00,WSW,244,3.0,8.0,20,0.00,,,0.00,254.000000,,2013-03-30 23:03:00,
2013-03-30 23:33:00,58.0,22.0,-100.00,North,358,1.0,6.0,25,0.00,,,0.00,71.000000,,2013-03-30 23:33:00,
2013-03-30 23:43:00,58.0,22.0,-100.00,North,358,1.0,6.0,25,0.00,,,0.00,71.000000,,2013-03-30 23:43:00,
2013-03-30 23:53:00,58.0,22.0,-100.00,North,358,1.0,6.0,25,0.00,,,0.00,71.000000,,2013-03-30 23:53:00,